Regional Weather Roundup
Issued by NWS

Home | Current Version | Previous Version | Text Only | Print | Product List | Glossary Off
Versions: 1 2 3 4 5 6 7 8 9 10 11 12 13 14 15 16 17 18 19 20 21 22 23 24 25 26 27 28 29 30 31 32 33 34 35 36 37 38 39 40 41 42 43 44 45 46 47 48 49 50

000
ASUS43 KBIS 260610
RWRND

NORTH DAKOTA REGIONAL WEATHER ROUNDUP
NATIONAL WEATHER SERVICE BISMARCK ND
100 AM CDT THU MAY 26 2016

NOTE: "FAIR" INDICATES FEW OR NO CLOUDS BELOW 12,000 FEET WITH NO
SIGNIFICANT WEATHER AND/OR OBSTRUCTIONS TO VISIBILITY.


NDZ001>003-009>011-017-260700-
NORTHWEST NORTH DAKOTA

CITY           SKY/WX    TMP DP  RH WIND       PRES   REMARKS
WILLISTON      CLEAR     46  44  93 S5        29.81F
6HR MIN TEMP:  44; 6HR MAX TEMP:  59;

MINOT          CLOUDY    59  55  87 SW7       29.73S
MINOT AFB      CLOUDY    54  53  96 CALM      29.72F
$$

NDZ018>021-031>035-040>046-260700-
SOUTHWEST NORTH DAKOTA

CITY           SKY/WX    TMP DP  RH WIND       PRES   REMARKS
BISMARCK       CLEAR     51  49  92 SW5       29.79F
6HR MIN TEMP:  51; 6HR MAX TEMP:  62; 6HR PCP:  0.02;

DICKINSON      CLEAR     44  40  85 W6        29.80F
GARRISON         N/A     54  51  90 W8        29.78S
6HR MIN TEMP:  54; 6HR MAX TEMP:  61; 6HR PCP:  0.02;

HETTINGER ARPT CLEAR     39  36  89 CALM      29.86S
$$

NDZ004>008-012>016-024-026-027-054-260700-
NORTHEAST NORTH DAKOTA

CITY           SKY/WX    TMP DP  RH WIND       PRES   REMARKS
GRAND FORKS    CLOUDY    57  55  93 SW8       29.70S
GRND FRKS AFB  PTCLDY    56  56 100 W6        29.70F
DEVILS LAKE    CLOUDY    54  53  97 NW5       29.75S
$$

NDZ022-023-025-028>030-036>039-047>053-260700-
SOUTHEAST NORTH DAKOTA

CITY           SKY/WX    TMP DP  RH WIND       PRES   REMARKS
FARGO          CLOUDY    55  53  93 SW6       29.71F
6HR MIN TEMP:  55; 6HR MAX TEMP:  67; 6HR PCP:  0.12;

JAMESTOWN      CLOUDY    57  57 100 SW5       29.74R
$$




USA.gov is the U.S. government's official web portal to all federal, state and local government web resources and services.